Dewpoint
-8 -4 -3 -2 -4 -5 -3 -5 -6 -5 -3 -0 3 6 5 7 11 14 7 13 14 14 13 9 9 9 9 10 11 10 11 11 11 11 12 10 7 7 4 4 6 11 7 6 6 4 3 3 2
-3 -0 -5 -5 -3 -1 -5 -8 -6 -5 -5 0 3 3 5 9 13 14 15 12 13 15 14 9 10 9 9 10 10 10 10 10 10 10 10 9 8 4 4 6 8 10 8 7 7 8 7 7 6
-4 -3 -5 -5 -4 -5 -5 -8 -7 -7 -5 -1 2 6 7 10 12 14 15 13 14 15 14 9 11 11 11 11 11 11 10 10 10 9 9 9 7 3 3 5 6 7 7 7 7 8 7 8 8
-3 -5 -5 -6 -6 -7 -8 -7 -5 -5 -4 -7 -2 7 11 11 12 15 14 15 15 15 14 11 12 13 12 12 12 12 11 10 10 10 10 8 7 4 6 5 8 7 6 6 5 4 3 2 2
-3 -3 -2 -5 -5 -8 -9 -6 -5 -1 -3 -4 -4 11 12 14 14 14 13 15 14 14 14 13 9 11 12 13 12 12 11 10 9 10 10 7 7 6 6 6 6 5 5 3 -1 -5 -7 -8 -8
-2 -4 -2 -3 -7 -8 -8 -7 -6 -1 1 3 2 10 13 14 14 15 14 14 14 14 14 13 9 6 9 11 11 9 9 9 11 10 9 9 6 6 7 7 6 4 3 -2 -6 -9 -10 -11 -11
-2 -2 -3 -4 -7 -7 -7 -7 -7 -6 -2 3 4 6 11 13 14 14 14 14 14 14 14 13 9 5 7 9 8 9 9 10 10 9 9 11 9 7 9 9 6 4 2 -5 -9 -11 -11 -12 -12
-5 -5 -5 -6 -7 -7 -7 -8 -8 -8 -1 2 -0 6 12 13 14 15 13 14 13 15 14 13 7 7 10 11 11 11 11 11 10 10 9 9 9 10 11 9 8 6 1 -7 -11 -11 -12 -12 -12
-6 -5 -4 -6 -7 -7 -8 -8 -8 -8 -6 -4 1 1 11 13 13 14 15 14 14 14 14 13 12 12 12 11 12 12 13 12 12 11 11 11 9 11 11 10 8 6 -0 -9 -11 -11 -11 -11 -11
-5 -4 -5 -7 -8 -7 -8 -8 -8 -8 -7 -6 -2 0 10 12 9 13 14 15 14 13 14 13 13 13 12 12 12 11 12 12 12 12 12 12 12 12 11 10 8 5 -2 -10 -11 -11 -11 -10 -10
-5 -4 -6 -6 -7 -7 -7 -7 -7 -7 -6 -8 -7 -2 8 11 12 12 13 14 14 14 14 13 13 13 13 12 12 12 11 11 11 11 12 12 11 11 10 9 8 4 -4 -10 -10 -11 -11 -5 -5
-4 -5 -6 -6 -6 -6 -6 -6 -5 -6 -6 -7 -6 -6 6 9 10 11 12 13 14 14 15 14 13 14 14 14 14 14 13 13 12 12 11 10 11 11 10 10 9 5 -3 -8 -10 -10 -1 5 4
-3 -4 -4 -5 -5 -5 -5 -5 -4 -5 -5 -4 -4 -4 -4 -3 5 7 7 11 12 14 14 15 14 14 14 14 14 14 13 12 12 12 12 12 11 10 11 11 9 6 2 -4 -8 -8 1 5 4
-3 -3 -3 -3 -4 -4 -4 -4 -4 -5 -5 -4 -3 -2 -2 -2 -1 3 6 9 12 13 13 14 14 14 14 14 14 13 13 12 11 13 13 12 11 11 11 10 9 7 5 1 -0 -2 3 3 4
-2 -1 -3 -4 -4 -4 -4 -3 -4 -5 -3 -3 -4 -3 -1 -0 0 1 4 8 11 12 13 13 13 14 13 14 13 12 12 11 12 11 11 12 12 11 11 10 10 7 3 3 2 3 3 5 5
-1 -2 0 -4 -5 -4 -5 -2 -6 -6 -5 -5 -5 -5 -4 -2 0 2 4 6 9 11 12 13 13 13 12 12 12 12 11 11 11 11 10 11 12 12 11 10 10 7 3 2 3 3 4 5 5
1 1 -1 -4 -5 -4 -4 -2 -5 -5 -4 -4 -4 -4 -5 -3 -2 1 3 5 7 10 11 13 13 13 12 12 12 12 12 11 11 11 10 10 11 11 11 11 10 5 3 3 3 3 4 5 5
1 -0 -2 -4 -5 -3 -3 -3 -4 -5 -6 -5 -5 -5 -5 -4 -2 0 1 1 3 6 9 12 12 13 12 12 12 12 12 12 11 10 10 10 11 11 11 11 9 4 3 3 3 3 4 5 5
-3 -4 -4 -5 -7 -5 -3 -3 -4 -5 -6 -6 -6 -5 -5 -5 -1 2 3 4 5 5 8 11 13 13 12 11 11 11 12 11 11 10 10 10 10 9 10 9 5 3 4 4 3 3 3 5 5
-3 -2 -2 -3 -5 -4 -4 -3 -5 -6 -6 -7 -7 -6 -5 -4 1 3 5 7 7 8 9 11 12 12 12 10 10 11 11 11 10 10 10 9 9 8 8 7 4 4 4 4 3 2 3 5 4
-3 -1 -2 -3 -4 -4 -4 -3 -3 -7 -7 -6 -5 -3 -3 -2 1 3 6 8 9 8 10 10 11 11 11 10 10 10 10 9 9 9 8 8 7 8 7 7 5 5 5 4 3 2 2 5 5
-1 -4 -3 -4 -2 0 -4 0 -3 -5 -6 -6 -3 -2 -1 1 2 3 5 7 7 3 1 2 -0 4 3 5 9 10 10 10 9 9 8 7 6 7 7 7 6 5 5 4 3 3 2 5 5
-2 -6 -4 -4 -3 -1 -2 -1 -3 -5 -5 -5 -1 -1 1 2 3 4 5 6 6 5 -3 -6 -6 -6 -6 -5 -1 5 7 7 8 8 8 7 6 6 7 6 6 5 5 4 4 4 3 5 5
-6 -5 -4 -2 -1 3 -1 -1 -2 -6 -6 -5 -1 1 2 3 3 3 3 4 4 2 1 0 -3 -4 -6 -5 -3 -0 4 6 8 8 7 7 6 6 6 5 5 5 4 4 3 4 3 5 5
-3 -2 2 3 5 4 -2 -1 -2 -6 -7 -2 0 1 2 3 3 4 3 2 2 3 3 3 2 1 0 -2 0 3 2 1 3 5 6 6 5 5 5 4 4 3 4 3 3 3 3 4 4
-2 -1 3 5 5 3 -1 1 -2 -5 -7 -4 -1 -0 0 -0 0 -0 -1 -1 -2 -4 -4 -1 0 1 2 6 5 3 2 1 1 3 4 5 5 5 4 4 3 2 2 2 2 2 3 3 3
-2 -1 -2 2 1 3 0 -2 -4 -3 -2 -3 -3 -0 -1 -2 -2 -2 -3 -4 -5 -5 -5 -5 -4 3 3 3 5 6 5 5 5 5 4 4 4 4 4 3 2 1 1 1 0 0 0 1 2
-3 -4 0 1 4 5 1 0 0 -1 -1 -1 -1 -1 -1 -1 -2 -5 -6 -7 -6 -6 -5 -4 -4 3 4 2 4 5 5 5 6 5 4 4 4 4 4 3 2 1 -0 -0 -0 -0 -0 0 1
-1 -1 -2 -2 -0 4 5 2 -0 -1 -2 -1 -0 -0 -1 -4 -5 -7 -7 -7 -7 -6 -5 -4 -2 -2 2 3 4 5 5 5 4 4 2 1 3 4 3 2 2 0 -1 -1 -1 -1 -0 -0 -0
-0 1 -0 3 2 2 3 5 -2 -1 -2 -2 -3 -5 -5 -6 -8 -8 -7 -7 -7 -6 -3 -0 -0 0 1 2 4 4 4 2 1 2 2 0 3 3 3 3 1 0 -0 -1 -1 -1 -1 -1 -1
Wind_Speed
6 4 6 9 6 7 15 7 10 6 6 7 6 7 10 21 10 8 15 9 7 13 13 23 22 20 19 18 17 16 14 13 12 11 10 7 6 5 4 3 2 1 2 3 3 3 3 3 3
3 5 7 9 5 10 5 10 5 11 12 3 4 4 9 16 15 13 11 14 12 13 11 22 23 21 19 18 16 16 15 14 13 12 10 9 7 6 6 5 4 2 2 1 1 3 3 2 3
5 2 8 3 7 9 8 10 11 8 6 5 4 4 4 9 11 8 6 14 16 12 12 21 23 21 20 19 18 17 14 13 13 12 12 11 10 8 8 6 4 3 4 3 2 1 3 3 3
1 5 7 7 13 7 10 8 5 4 6 6 6 11 8 7 6 9 11 18 15 14 15 14 21 21 20 19 17 15 14 14 12 14 13 12 11 11 7 6 6 6 5 4 3 3 2 3 4
7 7 6 7 15 6 1 9 5 4 1 3 5 14 8 10 12 13 13 14 15 16 18 13 20 21 20 19 18 16 15 14 15 16 15 12 12 10 8 8 7 6 5 5 4 4 4 3 4
15 13 11 10 7 5 4 2 5 1 2 2 4 30 9 9 12 11 11 17 9 16 15 12 19 20 20 19 18 17 17 17 17 15 15 14 14 11 9 8 8 7 7 6 5 5 4 3 4
13 9 11 15 5 0 6 1 3 5 6 3 5 6 14 10 10 10 11 15 22 11 13 11 20 21 19 19 19 20 20 20 21 18 18 15 14 12 10 10 9 8 8 7 6 6 5 5 6
16 11 16 12 7 3 7 1 2 9 5 4 5 7 13 17 13 13 10 12 24 14 15 13 21 20 20 20 19 19 20 20 19 19 19 16 14 11 11 10 11 10 10 9 9 8 7 7 7
11 9 13 12 6 3 11 3 8 5 10 5 1 7 16 19 13 14 9 14 19 19 15 16 18 18 18 19 20 20 18 18 18 18 17 16 15 15 14 15 12 11 11 10 11 10 9 8 8
8 11 15 10 10 6 2 7 10 4 9 14 14 13 12 13 10 13 14 14 14 14 18 17 17 20 18 18 19 21 21 21 20 18 17 14 13 12 14 15 14 13 13 13 12 11 9 9 11
14 12 17 8 5 9 12 11 8 12 8 11 5 7 17 14 11 12 12 14 18 18 22 19 20 19 20 18 23 23 25 25 24 22 19 16 14 14 17 15 15 16 15 14 14 14 12 11 12
16 14 17 15 12 4 9 13 14 14 15 15 9 5 13 15 15 13 13 15 16 21 22 19 20 21 22 26 28 26 27 25 25 25 21 21 21 20 20 19 18 19 17 17 16 15 17 13 10
9 14 19 16 10 13 14 15 15 16 16 5 8 10 11 13 15 14 15 17 18 18 23 20 21 23 27 29 28 28 28 27 27 27 24 24 23 23 21 20 19 19 18 19 18 19 18 20 22
18 18 17 18 17 17 15 17 15 20 6 3 5 9 12 16 15 14 14 12 16 19 18 24 23 24 27 26 26 26 24 26 25 30 25 25 24 25 24 24 23 21 19 17 18 19 20 23 24
14 15 16 20 23 18 11 13 17 19 9 6 13 9 3 9 8 10 11 16 15 17 18 18 26 26 24 26 27 27 27 27 29 31 31 30 29 27 27 28 29 25 22 21 19 20 18 19 19
16 17 16 2 12 7 3 14 16 11 7 9 10 9 8 9 9 9 13 10 14 13 20 21 21 23 23 24 24 25 26 27 29 31 31 32 31 30 30 30 27 26 23 24 22 24 23 21 21
14 12 9 3 9 7 11 10 8 5 9 15 17 13 14 9 4 6 5 4 8 12 14 27 23 19 13 19 24 25 25 28 28 26 28 30 31 31 34 34 32 25 25 26 27 27 27 27 25
14 13 15 14 2 6 8 11 13 20 20 19 12 7 14 5 9 7 5 3 3 7 6 16 18 16 14 17 22 26 27 26 24 23 23 29 31 31 33 35 29 27 29 31 30 28 28 29 29
11 11 12 13 12 11 10 14 14 18 18 19 16 15 20 12 9 7 7 4 2 5 6 8 10 13 18 19 22 25 22 20 20 22 29 26 29 30 32 32 27 28 32 33 31 29 31 29 30
9 11 13 13 13 9 15 19 18 21 19 22 19 13 17 12 11 8 7 5 6 6 4 4 13 14 16 19 20 24 28 29 32 31 27 26 27 28 27 29 28 31 36 33 32 35 34 32 34
9 12 13 16 15 17 19 21 19 9 4 8 9 15 13 9 11 8 7 6 4 5 8 8 7 10 13 16 19 22 23 28 26 27 25 27 27 24 25 27 30 28 37 34 36 39 38 36 38
13 12 15 15 14 13 16 13 17 18 12 13 14 15 14 10 9 8 5 5 2 1 2 1 3 4 9 11 18 23 25 27 28 31 33 33 35 37 36 33 37 30 31 32 34 38 43 36 41
14 13 14 16 17 17 18 12 15 16 16 17 14 16 13 13 10 6 4 4 4 5 6 8 11 13 16 16 15 19 24 25 26 29 35 39 40 43 40 39 36 33 30 37 29 33 42 33 40
12 12 15 19 16 13 20 15 12 8 8 12 19 18 15 13 9 6 4 4 2 4 6 9 13 17 19 20 21 21 21 20 21 26 32 37 38 37 35 33 33 35 34 35 33 31 41 31 30
11 12 7 6 4 11 13 13 9 10 7 15 14 17 14 12 12 8 4 1 6 11 16 17 23 23 24 24 25 20 19 18 19 19 22 29 34 33 32 31 32 36 38 36 35 34 33 32 28
10 11 7 11 11 18 17 10 10 5 13 16 17 18 13 9 6 3 3 5 9 13 16 20 24 27 22 25 30 25 19 19 18 19 19 21 24 27 28 29 29 31 32 35 38 41 37 42 30
6 9 12 15 15 14 7 14 11 13 10 6 8 11 7 8 5 5 7 13 17 18 19 20 26 24 22 21 24 24 26 21 20 19 19 21 19 22 23 24 28 27 27 28 33 36 37 37 27
13 12 11 7 6 9 9 13 12 6 8 10 5 7 6 6 7 13 18 21 22 21 21 22 22 20 21 20 27 30 24 21 22 17 15 20 21 21 23 19 21 23 26 26 27 30 34 33 40
12 14 14 12 11 10 14 2 4 6 5 5 5 6 3 7 15 18 19 19 19 21 22 20 20 23 25 24 28 26 20 25 23 20 15 19 18 22 26 20 21 25 22 22 24 26 27 28 28
20 19 17 11 13 13 15 22 6 7 2 8 1 4 11 17 17 18 17 19 22 22 17 14 19 23 22 20 25 20 19 24 19 22 20 18 19 19 19 24 24 18 18 21 20 21 23 25 24
Wind_Direction
298 15 354 286 249 231 255 261 58 86 139 55 21 9 47 52 36 115 164 187 161 203 197 191 179 170 164 161 163 167 170 170 173 183 182 189 182 188 185 166 126 86 96 90 107 119 121 113 103
215 266 266 282 256 263 280 72 95 58 44 64 155 167 92 74 76 114 146 152 156 205 191 192 180 174 172 170 173 177 180 180 178 188 194 192 197 200 199 178 167 197 277 281 147 132 139 134 128
159 206 266 216 233 253 47 41 20 43 125 225 179 97 22 92 69 122 187 134 164 188 172 187 180 178 180 182 183 186 186 188 189 194 199 197 203 211 193 192 197 205 234 247 270 197 169 167 162
114 226 251 254 263 57 20 37 36 269 136 252 261 112 89 60 106 147 143 156 160 162 174 173 178 179 185 190 190 190 192 197 199 204 201 202 209 211 190 188 210 215 219 224 230 238 220 185 166
245 255 262 248 250 76 45 33 8 10 31 161 221 32 22 85 110 123 132 151 144 149 185 189 187 186 189 193 194 195 198 203 209 204 203 209 217 219 206 203 214 223 226 227 227 231 232 204 166
274 269 258 267 150 105 109 35 279 163 243 134 246 151 106 132 124 131 134 144 147 174 195 193 194 194 190 194 196 197 201 210 209 206 212 214 219 217 218 216 218 226 231 225 233 233 225 210 175
248 262 274 284 289 172 134 31 306 339 284 152 350 41 129 226 140 142 149 149 144 201 205 215 197 193 188 192 194 197 204 208 211 208 215 212 221 223 218 225 226 226 226 224 224 220 213 193 175
256 287 281 265 295 346 102 130 69 267 37 132 324 115 173 167 154 149 151 154 160 183 205 221 193 190 187 191 198 203 209 212 210 209 218 220 226 227 225 230 231 228 226 221 216 209 203 192 175
270 270 260 270 165 239 112 246 203 250 290 251 62 24 126 153 146 142 153 170 180 175 199 201 198 193 194 200 203 207 216 218 216 216 223 223 227 225 225 228 228 230 229 224 216 207 193 186 172
226 252 279 28 1 340 245 220 271 269 253 230 220 206 152 151 161 170 180 191 194 186 206 201 198 195 198 205 214 215 217 221 225 227 223 229 250 237 232 231 228 224 223 220 213 207 197 182 168
239 250 285 335 358 321 315 305 288 269 253 283 300 167 164 162 178 184 193 202 202 188 203 208 204 203 206 208 222 219 219 223 226 226 223 230 223 215 231 232 231 224 223 219 212 203 193 173 166
252 267 273 285 296 282 273 293 298 292 291 304 317 355 170 187 195 211 206 203 216 206 198 205 209 208 203 209 213 216 214 213 217 224 233 234 224 232 235 238 235 229 225 223 217 202 172 156 193
247 262 275 270 266 266 260 259 272 274 269 325 324 303 273 258 224 215 234 220 204 224 202 201 206 213 210 217 227 225 224 227 230 244 229 225 228 244 240 240 232 227 227 229 219 195 190 184 193
289 304 295 289 272 261 263 272 272 267 213 249 278 276 266 243 250 223 212 209 196 219 221 204 206 217 222 219 227 234 234 240 248 236 231 233 238 247 239 228 229 222 223 214 221 200 208 203 205
308 294 277 261 245 238 250 275 253 245 159 224 262 215 241 290 277 234 227 203 215 236 245 219 206 218 224 228 233 243 246 244 244 248 251 249 241 237 240 237 233 226 210 207 213 203 212 195 194
281 260 269 331 193 133 118 279 289 124 174 260 282 285 210 219 228 236 225 228 216 217 232 245 226 225 235 230 238 243 243 246 248 248 249 250 246 239 242 235 237 224 213 205 206 209 191 191 189
239 255 225 340 136 150 182 265 295 266 218 236 251 244 268 185 194 182 189 246 247 236 216 220 236 235 251 255 242 240 244 253 257 259 249 248 247 243 242 239 236 219 210 213 203 209 194 193 188
348 327 331 321 91 202 239 257 267 283 281 272 266 245 264 192 91 64 35 304 285 241 224 232 240 234 240 254 244 242 246 252 258 253 251 246 245 242 244 239 229 216 210 213 203 210 197 197 190
314 296 291 290 296 306 303 278 271 274 264 265 252 230 223 144 116 82 52 33 37 232 165 252 222 238 256 262 251 243 239 239 237 241 265 254 241 244 242 233 220 212 213 214 206 204 198 198 190
291 290 289 287 288 305 290 289 283 269 253 239 239 228 133 139 120 107 95 93 114 118 152 232 238 252 250 250 253 255 249 250 259 250 254 241 243 245 243 233 210 217 220 217 207 203 198 199 193
277 270 298 319 315 296 283 275 270 263 132 98 103 105 114 134 115 126 98 83 119 146 148 181 213 251 257 261 256 256 256 261 264 258 241 234 233 229 231 237 215 228 227 217 214 206 198 197 195
290 311 325 305 301 289 316 293 291 278 223 155 143 134 139 133 122 119 123 91 38 33 60 330 329 275 290 275 264 259 261 265 266 258 239 232 231 232 226 218 217 218 221 212 219 213 199 200 194
289 314 298 293 285 287 276 271 281 273 250 160 148 150 143 132 137 138 117 89 67 42 14 4 346 331 321 310 288 273 268 268 264 259 252 240 237 233 230 230 227 219 215 214 206 209 210 194 203
293 287 287 272 257 254 261 250 274 334 350 170 147 151 152 157 162 158 162 133 97 336 323 321 325 322 317 312 301 288 273 266 264 260 253 246 241 242 246 252 244 233 224 218 209 212 204 203 200
244 257 284 282 292 275 315 311 302 296 184 136 136 150 163 156 170 173 156 26 312 310 310 305 306 305 305 298 290 276 275 278 272 265 262 262 255 259 259 256 250 241 235 225 219 214 206 208 205
294 289 286 285 295 290 303 279 279 96 89 116 151 160 161 155 154 198 244 265 293 296 305 295 291 287 292 291 297 291 288 283 282 276 266 262 265 266 265 259 254 249 243 234 221 217 208 213 222
268 255 289 284 284 287 254 254 277 99 105 112 140 137 177 180 192 243 278 305 322 321 313 297 306 274 270 277 271 276 279 281 288 286 276 274 272 269 264 261 257 246 232 223 222 213 211 217 199
263 285 290 266 271 268 268 290 305 169 157 168 175 160 190 226 288 313 318 319 314 312 309 300 295 273 270 273 265 267 266 271 277 266 269 262 281 271 258 252 245 234 237 228 226 219 215 212 208
250 244 228 258 270 281 290 260 122 96 60 45 138 173 217 287 310 319 316 309 309 307 300 296 293 279 284 271 264 260 261 261 266 248 253 262 258 254 260 252 240 243 224 219 217 216 210 197 190
263 254 256 254 253 243 255 261 230 54 269 155 106 306 296 316 321 318 306 307 308 304 289 290 287 290 290 288 273 253 270 273 273 266 275 273 254 253 276 237 228 247 229 219 211 204 197 195 197
Height
1492 1492 1492 1492 1494 1479 1470 1455 1444 1451 1457 1462 1463 1463 1464 1467 1475 1493 1486 1493 1493 1489 1493 1496 1497 1501 1504 1507 1510 1513 1516 1518 1520 1523 1526 1528 1528 1531 1533 1534 1536 1537 1537 1538 1538 1538 1539 1540 1541
1491 1492 1494 1490 1491 1489 1465 1448 1453 1455 1460 1464 1465 1463 1463 1473 1474 1482 1486 1489 1492 1488 1493 1495 1497 1501 1504 1507 1511 1513 1516 1518 1519 1522 1526 1527 1529 1530 1533 1534 1534 1536 1537 1538 1539 1539 1539 1540 1541
1491 1492 1493 1487 1480 1481 1470 1455 1454 1456 1463 1463 1461 1467 1468 1476 1478 1481 1482 1485 1489 1489 1493 1494 1498 1502 1504 1507 1510 1513 1516 1519 1520 1522 1524 1526 1529 1530 1531 1534 1535 1536 1536 1537 1539 1539 1539 1540 1541
1491 1493 1490 1484 1473 1463 1461 1458 1460 1457 1461 1463 1464 1467 1474 1480 1481 1479 1482 1486 1489 1492 1495 1496 1499 1501 1504 1507 1510 1514 1516 1518 1521 1523 1524 1525 1529 1530 1531 1531 1534 1535 1535 1537 1538 1539 1539 1540 1541
1493 1489 1484 1479 1470 1461 1461 1462 1464 1459 1462 1464 1465 1481 1488 1486 1486 1481 1481 1486 1489 1491 1493 1495 1498 1501 1503 1507 1510 1513 1517 1518 1521 1522 1524 1525 1527 1529 1530 1531 1533 1534 1535 1536 1538 1539 1540 1540 1541
1492 1481 1479 1474 1461 1459 1463 1466 1465 1462 1463 1464 1469 1480 1485 1487 1484 1484 1481 1485 1489 1490 1492 1495 1497 1500 1503 1506 1509 1512 1515 1517 1520 1522 1524 1525 1526 1528 1530 1530 1531 1533 1534 1535 1537 1538 1540 1541 1541
1487 1478 1477 1468 1461 1463 1462 1468 1466 1465 1463 1462 1468 1471 1482 1492 1483 1483 1483 1484 1490 1491 1491 1494 1496 1499 1502 1504 1507 1509 1511 1513 1515 1519 1522 1523 1525 1528 1529 1530 1531 1531 1533 1534 1535 1537 1538 1540 1541
1484 1478 1473 1461 1464 1465 1462 1468 1469 1468 1466 1467 1467 1470 1479 1483 1484 1483 1480 1483 1488 1491 1492 1493 1495 1498 1500 1503 1506 1509 1511 1513 1514 1517 1518 1521 1524 1527 1528 1529 1530 1530 1531 1532 1533 1534 1537 1538 1540
1483 1483 1472 1456 1458 1459 1462 1468 1467 1469 1468 1467 1467 1471 1478 1481 1480 1480 1481 1484 1485 1488 1490 1492 1494 1497 1500 1502 1504 1507 1511 1513 1515 1516 1518 1519 1520 1522 1524 1525 1528 1529 1531 1532 1532 1533 1534 1536 1539
1480 1477 1463 1457 1458 1461 1463 1468 1467 1467 1466 1465 1465 1468 1470 1473 1474 1477 1481 1482 1484 1486 1488 1491 1494 1497 1499 1501 1503 1506 1508 1510 1514 1516 1519 1520 1521 1523 1522 1523 1524 1525 1527 1529 1530 1533 1535 1536 1537
1474 1475 1463 1462 1464 1466 1466 1465 1465 1466 1465 1463 1464 1466 1470 1475 1477 1479 1481 1483 1482 1484 1487 1489 1491 1495 1498 1500 1500 1502 1504 1506 1508 1511 1516 1519 1520 1521 1520 1522 1524 1524 1526 1526 1528 1530 1532 1534 1538
1471 1468 1467 1465 1466 1468 1469 1468 1467 1466 1465 1463 1464 1467 1469 1472 1475 1478 1479 1481 1480 1482 1485 1487 1490 1493 1496 1497 1498 1500 1502 1503 1504 1507 1512 1515 1517 1517 1518 1519 1521 1522 1523 1524 1526 1530 1531 1533 1538
1467 1468 1466 1464 1466 1468 1468 1466 1465 1464 1464 1464 1466 1468 1470 1470 1471 1472 1476 1475 1478 1479 1483 1487 1489 1489 1492 1494 1497 1498 1499 1502 1504 1505 1508 1509 1510 1514 1516 1515 1518 1518 1520 1522 1524 1528 1529 1531 1534
1468 1466 1465 1463 1463 1463 1463 1462 1462 1459 1461 1464 1466 1467 1467 1467 1468 1469 1472 1475 1477 1478 1480 1483 1486 1489 1490 1492 1493 1495 1498 1500 1501 1502 1505 1506 1509 1511 1512 1513 1515 1515 1516 1518 1521 1525 1525 1528 1530
1470 1469 1464 1458 1458 1458 1458 1461 1457 1455 1459 1462 1463 1461 1464 1464 1465 1466 1469 1470 1472 1474 1475 1478 1483 1485 1488 1490 1492 1493 1495 1496 1499 1501 1502 1503 1505 1505 1508 1511 1510 1513 1515 1517 1518 1520 1522 1525 1526
1472 1466 1466 1443 1447 1455 1462 1467 1450 1449 1456 1459 1459 1459 1460 1461 1463 1465 1467 1469 1471 1475 1475 1474 1477 1481 1485 1487 1489 1490 1490 1492 1494 1495 1498 1500 1501 1502 1502 1503 1508 1509 1510 1513 1516 1517 1519 1523 1524
1461 1468 1451 1446 1447 1452 1459 1461 1449 1452 1453 1454 1456 1456 1458 1459 1462 1463 1466 1469 1472 1471 1473 1469 1474 1476 1481 1485 1487 1487 1488 1488 1489 1490 1492 1495 1495 1496 1498 1497 1500 1503 1505 1508 1510 1513 1515 1517 1520
1469 1465 1457 1458 1451 1453 1456 1456 1452 1451 1450 1449 1450 1453 1458 1458 1461 1464 1466 1468 1470 1472 1473 1469 1473 1473 1477 1480 1482 1483 1484 1485 1486 1485 1486 1489 1490 1490 1491 1491 1493 1498 1500 1502 1505 1508 1512 1514 1516
1467 1468 1466 1456 1448 1451 1456 1454 1448 1445 1444 1445 1445 1447 1449 1453 1458 1462 1465 1469 1471 1470 1472 1469 1471 1471 1473 1477 1479 1480 1480 1480 1482 1482 1481 1481 1483 1485 1485 1485 1489 1492 1494 1496 1499 1503 1507 1510 1513
1469 1468 1465 1454 1447 1450 1450 1448 1441 1435 1431 1432 1435 1438 1445 1453 1458 1465 1468 1470 1469 1470 1472 1472 1473 1473 1472 1472 1474 1476 1477 1478 1479 1479 1480 1480 1478 1479 1481 1483 1484 1486 1488 1491 1493 1496 1500 1504 1507
1468 1468 1460 1461 1453 1452 1449 1443 1431 1424 1426 1432 1437 1442 1450 1455 1460 1467 1471 1472 1469 1468 1470 1472 1473 1472 1472 1471 1471 1472 1473 1474 1474 1475 1477 1477 1477 1477 1476 1478 1481 1480 1482 1485 1486 1488 1491 1494 1497
1468 1456 1458 1461 1465 1470 1453 1457 1439 1426 1422 1429 1437 1443 1450 1455 1460 1465 1469 1469 1467 1467 1468 1469 1470 1470 1469 1468 1469 1468 1468 1468 1469 1469 1469 1471 1472 1472 1471 1471 1470 1473 1475 1478 1482 1484 1482 1485 1488
1465 1461 1463 1464 1466 1465 1459 1455 1433 1415 1416 1425 1436 1444 1451 1456 1461 1467 1468 1469 1469 1469 1470 1470 1471 1470 1468 1466 1464 1463 1462 1461 1461 1462 1462 1463 1464 1464 1466 1466 1468 1470 1470 1472 1472 1476 1483 1473 1482
1460 1463 1461 1454 1454 1466 1444 1441 1429 1419 1420 1416 1433 1444 1452 1456 1461 1465 1466 1467 1467 1466 1467 1467 1467 1467 1466 1464 1462 1459 1457 1456 1456 1456 1457 1457 1458 1460 1462 1463 1465 1467 1467 1468 1468 1475 1472 1467 1473
1457 1462 1472 1463 1455 1447 1419 1430 1423 1413 1414 1425 1437 1444 1450 1454 1459 1463 1464 1466 1467 1467 1467 1465 1464 1463 1462 1461 1459 1456 1454 1453 1453 1453 1453 1453 1453 1455 1457 1458 1458 1461 1461 1463 1465 1469 1471 1472 1474
1459 1461 1470 1475 1471 1451 1440 1441 1425 1414 1419 1426 1433 1442 1450 1455 1459 1460 1461 1462 1463 1463 1463 1462 1460 1458 1459 1454 1454 1452 1450 1449 1448 1449 1450 1450 1451 1452 1453 1452 1454 1456 1457 1457 1458 1462 1464 1468 1468
1458 1460 1449 1456 1455 1455 1439 1423 1414 1421 1429 1433 1436 1444 1450 1453 1456 1458 1459 1461 1460 1460 1459 1458 1457 1453 1453 1454 1451 1449 1448 1448 1447 1448 1448 1448 1448 1447 1447 1448 1449 1450 1451 1451 1452 1456 1460 1461 1461
1456 1455 1467 1458 1476 1469 1436 1428 1426 1427 1427 1433 1437 1443 1449 1453 1455 1455 1455 1454 1453 1452 1452 1451 1451 1450 1448 1447 1446 1444 1442 1444 1443 1443 1444 1444 1443 1443 1442 1443 1444 1445 1446 1447 1446 1450 1454 1458 1461
1451 1453 1456 1458 1458 1463 1455 1441 1427 1431 1435 1436 1438 1443 1448 1450 1450 1450 1451 1452 1450 1448 1448 1448 1446 1445 1443 1440 1439 1438 1438 1436 1437 1438 1436 1433 1434 1436 1439 1439 1440 1441 1442 1444 1445 1447 1450 1453 1459
1440 1444 1446 1456 1454 1449 1450 1428 1425 1429 1434 1438 1442 1444 1447 1448 1447 1447 1447 1446 1446 1444 1441 1441 1442 1440 1439 1436 1434 1432 1431 1431 1432 1430 1431 1430 1431 1433 1432 1434 1434 1437 1437 1441 1443 1445 1448 1450 1455